Preview of NWS' New Version of Forecast
This preview is not operational and should not be used for support decisions.

Regional Weather Roundup (RWR)

Issued by National Weather Service (NWS)

                            
000
ASUS43 KLSX 211007
RWRMO 

WEATHER SUMMARY FOR MISSOURI
NATIONAL WEATHER SERVICE SPRINGFIELD MO
500 AM CDT SUN JUL 21 2019

NOTE: "FAIR" INDICATES FEW OR NO CLOUDS BELOW 12,000 FEET WITH NO
       SIGNIFICANT WEATHER AND/OR OBSTRUCTIONS TO VISIBILITY.
       CURRENT SKY AND/OR WEATHER CONDITIONS ARE NOT AVAILABLE FOR
       CHILLICOTHE AND FARMINGTON.

MOZ001>031-035>038-043-044-053-054-211100-
...NORTHERN AND WESTERN MISSOURI...
  
CITY           SKY/WX    TMP DP  RH WIND       PRES   REMARKS
KANSAS CTY INT CLOUDY    70  69  97 S15       29.97F                  
KANSAS C DTWN  LGT RAIN  72  68  87 S7        29.98F                  
LEE'S SUMMIT   LGT RAIN  70  67  90 SE8       29.99F                  
ST JOSEPH      TSTM      72  69  90 N7        30.02R FOG              
CHILLICOTHE      N/A     71  70  96 W3        29.98S                  
KIRKSVILLE     CLEAR     70  68  93 SW6       29.92F                  
     
$$
MOZ066>068-077>081-088>096-101>105-211100-
...SOUTHWEST MISSOURI...
  
CITY           SKY/WX    TMP DP  RH WIND       PRES   REMARKS
SPRINGFIELD    CLEAR     74  70  87 SW8       29.96F                  
JOPLIN         CLEAR     77  72  84 S6        29.95S                  
BRANSON        CLEAR     72  72 100 CALM      30.00R                  
               
$$
MOZ032>034-039>042-045>050-055>058-069>072-211100-
...CENTRAL MISSOURI...  
  
CITY           SKY/WX    TMP DP  RH WIND       PRES   REMARKS
COLUMBIA       PTCLDY    72  69  90 SW7       29.93F                  
ROLLA          CLEAR     72  68  87 SW7       29.96S                  
SEDALIA        LGT RAIN  69  32  25 N5        29.97F                  
WHITEMAN AFB   RAIN      70  70 100 CALM      29.94F FOG              
WARRENSBURG    RAIN      68  68 100 NW3       30.00F                  
OSAGE BEACH    CLEAR     72  70  93 CALM      29.96F                  
               
$$
MOZ051-052-059>065-211100-
...EAST CENTRAL MISSOURI...
  
CITY           SKY/WX    TMP DP  RH WIND       PRES   REMARKS
ST LOUIS INTL  NOT AVBL                                               
SPIRIT OF STL  CLEAR     78  72  81 SW3       29.88R                  
ST CHARLES       N/A    N/A N/A N/A MISG      29.87R                  
                   
$$
MOZ072>076-082>087-097>100-106>115-211100-
...SOUTH CENTRAL AND SOUTHEAST MISSOURI...
  
CITY           SKY/WX    TMP DP  RH WIND       PRES   REMARKS
CAPE GIRARDEAU MOCLDY    79  75  87 S3        29.93R                  
FARMINGTON     CLOUDY    76  75  97 SW5       29.96R                  
POPLAR BLUFF   FAIR      78  78 100 SW5       29.93R                  
WEST PLAINS    CLEAR     75  72  90 W6        29.99S                  
                                       
$$